Location: Harbor Island
(32.3990°N, 80.4435°W)
Time: 12:36:10
(UTC-04:00)

Daily predictions for brighter satellites

Satellite Brightness Start Highest point End
(mag) Time Altitude Azimuth Time Altitude Azimuth Time Altitude Azimuth
Cosmos 2239 Rocket 4.5 20:06:29 10° S 20:12:42 79° E 20:18:54 10° N
Cosmos 1656 4.1 20:11:39 10° S 20:16:48 38° ESE 20:21:55 10° NE
Meteor 1-28 Rocket 4.3 20:14:57 10° N 20:18:39 51° WNW 20:22:18 10° SSW
Cosmos 1934 Rocket 4.0 20:13:05 10° S 20:19:06 67° E 20:25:17 10° NNE
Lacrosse 5 rocket 2.7 20:16:30 10° N 20:19:15 20° NE 20:21:57 10° E
Meteor 1-23 Rocket 4.2 20:14:29 10° N 20:20:10 74° E 20:25:53 10° SSE
Delta 2 Rocket 4.1 20:15:39 10° WNW 20:21:29 87° NNE 20:26:52 10° ESE
Cosmos 1544 Rocket 3.6 20:19:16 10° S 20:23:37 88° W 20:28:03 10° N
SJ-6B 4.0 20:21:32 10° S 20:25:06 44° W 20:28:41 10° NNW
CZ-2D R/B 4.3 20:23:07 10° SE 20:26:23 27° ENE 20:29:40 10° NNE
DELTA 2 R/B (1) 4.3 20:21:30 10° WNW 20:26:51 45° N 20:32:10 10° E
Helios 1B rocket 3.3 20:23:35 10° N 20:27:37 56° WNW 20:31:38 10° SSW
Resurs 01 Rocket 1.6 20:23:21 10° SSE 20:27:46 88° ENE 20:32:14 10° NNW
FengYun 1-2 T 4.3 20:24:01 10° SSE 20:29:34 62° ENE 20:35:06 10° N
Okean 2 3.4 20:25:47 10° N 20:29:56 66° E 20:34:01 10° SSE
Cosmos 2227 Rocket 2.5 20:25:17 10° N 20:30:45 47° ENE 20:36:09 10° SE
Hubble Space Telescope 2.4 20:28:12 10° WSW 20:31:36 24° SSW 20:34:59 10° SE
H-2A R/B 4.1 20:27:59 10° WSW 20:32:05 47° S 20:49:41 13° ESE
Meteor 1-12 Rocket 4.5 20:27:52 10° SSE 20:33:21 50° E 20:38:56 10° NNE
Myojo/LAPS 3.4 20:31:42 10° WSW 20:34:26 35° S 20:36:00 16° ESE
HJ-1C 3.9 20:32:21 10° S 20:35:35 61° W 20:38:50 10° NNW
Cosmos 468 Rocket 4.4 20:33:41 10° SSE 20:38:22 37° E 20:43:04 10° NE
OAO 2 Rocket 3.6 20:34:06 10° W 20:39:04 68° N 20:43:52 11° ENE
Cosmos 2297 Rocket 2.6 20:40:25 10° N 20:45:50 45° ENE 20:50:15 15° SE
ALOS 2.3 20:41:38 10° SSE 20:46:13 61° ENE 20:50:50 10° N
Cosmos 2082 3.7 20:41:05 10° NNW 20:46:39 61° ENE 20:52:02 11° SSE
Cosmos 1814 Rocket 4.4 20:44:56 10° S 20:49:55 41° ESE 20:54:53 10° NNE
Helios 1A 4.1 20:47:45 10° S 20:51:44 45° W 20:55:45 10° NNW
Cosmos 1346 Rocket 2.9 20:48:44 10° N 20:52:42 77° W 20:56:42 10° S
ATLAS 2A CENTAUR R/B 3.0 20:49:31 10° WSW 20:52:54 16° SW 20:54:42 10° S
USA 186 2.0 20:51:43 22° SE 20:53:20 43° ENE 20:56:10 10° N
ATLAS 3B CENTAUR R/B 1.7 20:53:38 10° WSW 20:55:04 16° SSW 20:55:10 16° S
OTV 4 0.3 20:54:29 10° WNW 20:57:27 79° NNE 20:58:28 37° ESE
NOSS 3-4 (A) 4.0 20:52:59 10° NNW 21:00:08 78° WSW 21:07:41 10° SSE
NOSS 3-4 (C) 4.0 20:53:07 10° NNW 21:00:16 79° WSW 21:07:49 10° SSE
Cosmos 1515 4.2 20:57:54 10° NNE 21:01:29 37° E 21:02:35 30° ESE
Cosmos 2173 Rocket 4.4 20:58:38 10° SSE 21:04:28 40° E 21:10:18 10° NNE
Cosmos 1461 2.9 21:01:12 10° NNW 21:05:10 69° WSW 21:07:47 20° SSE
Cosmos 1605 Rocket 4.4 21:03:40 10° SSW 21:09:59 66° W 21:16:13 10° N
CZ-4B DEB 4.2 21:07:46 10° S 21:10:51 38° W 21:13:56 10° NNW
Cosmos 1743 3.5 21:13:06 33° ENE 21:13:06 33° ENE 21:16:18 10° NNE
Cosmos 1697 Rocket 2.7 21:10:48 10° SSW 21:16:27 83° WNW 21:22:08 10° NNE
Tiangong 1 3.4 21:16:11 10° NNW 21:18:05 15° NNE 21:18:49 14° NNE
Cosmos 2100 Rocket 4.0 21:13:30 10° S 21:19:41 60° E 21:25:48 10° NNE
H-2A R/B 3.8 21:20:45 17° NE 21:20:45 17° NE 21:22:35 10° NNE
RESURS DK-1 3.5 21:16:14 10° N 21:19:37 27° ENE 21:19:37 27° ENE
Cosmos 1066 Rocket 4.3 21:17:27 10° N 21:23:06 58° E 21:25:46 31° SSE
Envisat 3.6 21:23:25 35° E 21:24:05 36° ENE 21:28:43 10° N
YAOGAN 11 4.3 21:24:12 44° ESE 21:25:12 54° ENE 21:29:34 10° N
Iridium 4 Rocket 3.2 21:21:16 10° N 21:26:09 87° W 21:29:07 21° S
Cosmos 1626 Rocket 3.9 21:23:10 10° NNW 21:27:31 65° W 21:30:34 19° S
Cosmos 2061 Rocket 3.9 21:23:34 10° S 21:29:49 66° E 21:36:02 10° NNE
Cosmos 2298 Rocket 3.9 21:24:31 10° NNW 21:29:50 75° ENE 21:31:50 39° SSE
Cosmos 1937 Rocket 3.8 21:26:10 10° N 21:31:16 48° ENE 21:32:04 44° E
Cosmos 2084 3.4 21:28:46 10° NNW 21:32:53 62° ENE 21:33:09 61° E
Milstar 3 Cent rocket 4.4 21:10:55 10° W 21:35:14 75° S 21:41:58 33° ESE
Cosmos 1602 Rocket 4.4 21:32:59 10° NNW 21:37:16 49° W 21:40:24 17° SSW
H-2A R/B 4.4 21:35:06 12° SSW 21:38:13 32° W 21:41:47 10° NNW
Cosmos 1980 Rocket 2.1 21:34:19 10° SSW 21:39:58 88° WNW 21:45:41 10° NNE
Cosmos 990 Rocket 4.4 21:37:07 10° N 21:41:59 43° ENE 21:41:59 43° ENE
Lacrosse 5 2.3 21:39:47 10° NNW 21:44:40 46° NE 21:44:53 46° NE
deb Chang Zheng 4 4.3 21:41:24 10° NNE 21:44:25 40° NE 21:44:25 40° NE
SPOT 5 3.8 21:49:22 34° NE 21:49:22 34° NE 21:52:52 10° N
Cosmos 1459 Rocket 3.9 21:42:49 10° S 21:48:51 82° W 21:54:59 10° N
ERS-1 Rocket 2.8 21:48:21 60° SSE 21:49:18 90° ENE 21:54:21 10° NNW
Cosmos 1725 Rocket 4.3 21:53:16 45° ENE 21:53:16 45° ENE 21:58:30 10° NNE
Cosmos 2150 Rocket 4.1 21:50:21 10° NNW 21:55:29 70° WSW 21:56:30 55° SSW
BREEZE-M TANK 3.6 21:50:37 10° NW 21:57:47 38° NNE 21:58:04 37° NNE
Lacrosse 5 rocket 2.8 21:55:18 10° WNW 21:57:58 27° WSW 21:57:58 27° WSW
Cosmos 2098 Rocket 4.0 22:00:54 60° SE 22:01:51 67° E 22:07:52 10° NNE
Cosmos 1763 Rocket 3.7 21:57:25 10° SSW 22:02:29 66° WNW 22:07:32 10° N
Cosmos 1606 Rocket 4.1 22:06:33 54° NNW 22:06:33 54° NNW 22:10:10 10° N
Cosmos 2263 Rocket 4.3 22:07:49 10° NNE 22:09:09 13° NE 22:09:09 13° NE
Cosmos 1898 Rocket 4.4 22:06:31 10° NNW 22:11:32 45° WSW 22:12:34 39° SW
Cosmos 2322 Rocket 3.8 22:16:55 23° NNE 22:16:55 23° NNE 22:18:59 10° NNE
DELTA 2 R/B (1) 3.6 22:08:00 10° WNW 22:13:06 73° W 22:13:06 73° W
OAO 2 Rocket 4.1 22:19:03 10° WNW 22:22:50 50° WNW 22:22:50 50° WNW
Cosmos 841 Rocket 4.5 22:23:26 26° SW 22:25:58 44° WNW 22:30:58 10° N
Cosmos 2297 Rocket 4.4 22:25:32 10° NW 22:29:26 19° W 22:32:06 14° SW
SL-16 R/B 4.0 23:13:10 26° NNW 23:13:10 26° NNW 23:15:58 10° N
